Date String (YYYY-MM-DD hh:mm:ss) UTC,Instrument flags,Ambient pressure (hPa),Sample flow (lpm),Bypass flow (lpm),Sample temperature (°C),Ambient temperature (°C),ASC tube jacket temperature (°C),LED temperature (°C),Box temperature (°C),Sample RH (%),Span deviation,Mass concentration (μg/m³),Mass concentration (μg/m³),Mass concentration (μg/m³)
DateTimeUTC,F1_M11,P_M11,Q1_M11,Q2_M11,T1_M11,T2_M11,T3_M11,T4_M11,T5_M11,U1_M11,ZSPAN_M11,X2_M11,X0_M11,X1_M11
2021-08-26 11:00:00,,0829.6,5.01,0.00,29.4,28.7,00.0,38.7,31.2,32.7,0000.7,0011.28,0026.13,0009.26
2021-08-26 11:01:00,,0829.6,5.00,0.00,29.4,28.7,00.0,38.7,31.2,32.6,0000.2,0011.26,0026.28,0009.23
2021-08-26 11:02:00,,0829.6,5.01,0.00,29.5,28.7,00.0,38.7,31.2,32.5,-000.1,0011.22,0026.09,0009.21
2021-08-26 11:03:00,,0829.6,4.99,0.00,29.4,28.7,00.0,38.7,31.2,32.4,-000.3,0011.21,0026.29,0009.20
2021-08-26 11:04:00,,0829.6,5.01,0.00,29.5,28.7,00.0,38.7,31.2,32.4,-000.7,0011.19,0026.46,0009.19
2021-08-26 11:05:00,,0829.6,4.99,0.00,29.5,28.7,00.0,38.7,31.2,32.4,-000.8,0011.14,0026.95,0009.16
2021-08-26 11:06:00,,0829.6,5.00,0.00,29.5,28.7,00.0,38.7,31.2,32.3,-000.6,0011.04,0026.03,0009.14
2021-08-26 11:07:00,,0829.6,5.01,0.00,29.5,28.8,00.0,38.7,31.2,32.4,-000.5,0010.93,0024.81,0009.13
2021-08-26 11:08:00,,0829.6,5.01,0.00,29.5,28.8,00.0,38.7,31.2,32.4,-000.5,0010.89,0023.89,0009.12
2021-08-26 11:09:00,,0829.6,4.99,0.00,29.5,28.8,00.0,38.7,31.3,32.6,0000.0,0010.91,0023.59,0009.13
2021-08-26 11:10:00,,0829.6,5.00,0.00,29.5,28.8,00.0,38.7,31.3,32.3,0000.3,0010.90,0023.62,0009.15
2021-08-26 11:11:00,,0829.6,5.01,0.00,29.5,28.8,00.0,38.7,31.3,32.6,0000.5,0010.86,0023.00,0009.15
2021-08-26 11:12:00,,0829.6,5.01,0.00,29.5,28.9,00.0,38.7,31.3,32.3,0000.6,0010.86,0023.60,0009.16
2021-08-26 11:13:00,,0829.5,5.00,0.00,29.6,28.9,00.0,38.7,31.3,31.8,0000.9,0010.84,0024.20,0009.15
2021-08-26 11:14:00,,0829.5,5.00,0.00,29.6,28.9,00.0,38.7,31.4,31.6,0001.0,0010.76,0023.81,0009.14
2021-08-26 11:15:00,,0829.5,4.99,0.00,29.6,28.9,00.0,38.7,31.4,31.6,0001.4,0010.81,0023.78,0009.13
2021-08-26 11:16:00,,0829.5,5.00,0.00,29.6,28.9,00.0,38.7,31.4,31.6,0001.8,0010.80,0022.68,0009.14
2021-08-26 11:17:00,,0829.6,5.01,0.00,29.6,29.0,00.0,38.7,31.4,31.4,0002.2,0010.83,0021.81,0009.15
2021-08-26 11:18:00,,0829.7,5.01,0.00,29.6,29.0,00.0,38.8,31.4,31.2,0002.2,0010.86,0022.01,0009.16
2021-08-26 11:19:00,,0829.5,5.00,0.00,29.6,29.0,00.0,38.8,31.4,30.9,0002.0,0010.83,0021.82,0009.17
2021-08-26 11:20:00,,0829.5,4.99,0.00,29.7,29.0,00.0,38.8,31.4,30.8,0001.5,0010.79,0021.60,0009.13
2021-08-26 11:21:00,,0829.5,5.02,0.00,29.7,29.0,00.0,38.8,31.4,30.7,0001.6,0010.71,0021.12,0009.11
2021-08-26 11:22:00,,0829.5,4.99,0.00,29.7,29.0,00.0,38.8,31.4,30.7,0001.5,0010.73,0021.09,0009.10
2021-08-26 11:23:00,,0829.5,5.02,0.00,29.7,29.0,00.0,38.8,31.4,30.9,0001.7,0010.74,0020.38,0009.09
2021-08-26 11:24:00,,0829.6,5.00,0.00,29.7,29.0,00.0,38.8,31.4,30.9,0001.5,0010.72,0019.73,0009.09
2021-08-26 11:25:00,,0829.6,5.00,0.00,29.7,29.0,00.0,38.8,31.4,30.8,0001.4,0010.72,0019.79,0009.10
2021-08-26 11:26:00,,0829.5,4.99,0.00,29.7,29.0,00.0,38.8,31.4,30.6,0001.1,0010.70,0019.76,0009.08
2021-08-26 11:27:00,,0829.6,5.00,0.00,29.7,29.0,00.0,38.8,31.5,30.5,0000.8,0010.70,0019.83,0009.06
2021-08-26 11:28:00,,0829.8,5.00,0.00,29.8,29.1,00.0,38.8,31.5,30.6,0000.5,0010.65,0019.82,0009.04
2021-08-26 11:29:00,,0829.7,5.00,0.00,29.8,29.1,00.0,38.8,31.6,31.0,0000.4,0010.67,0019.88,0009.01
2021-08-26 11:30:00,,0829.7,5.01,0.00,29.8,29.1,00.0,38.9,31.6,31.1,0000.6,0010.69,0019.84,0009.00
2021-08-26 11:31:00,,0829.7,5.00,0.00,29.8,29.2,00.0,38.9,31.6,30.7,0000.8,0010.69,0019.43,0009.01
2021-08-26 11:32:00,,0829.7,5.00,0.00,29.9,29.2,00.0,38.9,31.7,30.5,0000.8,0010.77,0019.65,0009.04
2021-08-26 11:33:00,,0829.6,5.02,0.00,29.9,29.2,00.0,38.9,31.7,31.2,0000.8,0010.78,0019.28,0009.05
2021-08-26 11:34:00,,0829.8,4.99,0.00,29.9,29.3,00.0,38.9,31.8,32.1,0000.5,0010.70,0019.09,0009.07
2021-08-26 11:35:00,,0829.6,5.00,0.00,29.9,29.3,00.0,39.0,31.7,31.8,0000.3,0010.73,0019.02,0009.09
2021-08-26 11:36:00,,0829.7,4.99,0.00,30.0,29.3,00.0,39.0,31.8,31.3,0000.5,0010.77,0019.66,0009.10
2021-08-26 11:37:00,,0829.8,5.00,0.00,30.0,29.3,00.0,39.0,31.8,31.3,0000.7,0010.78,0019.89,0009.14
2021-08-26 11:38:00,,0829.8,5.00,0.00,30.0,29.4,00.0,39.0,31.8,31.2,0000.9,0010.79,0020.32,0009.18
2021-08-26 11:39:00,,0829.7,5.00,0.00,30.0,29.4,00.0,39.0,31.9,31.2,0000.8,0010.78,0020.21,0009.19
2021-08-26 11:40:00,,0830.0,5.01,0.00,30.1,29.4,00.0,39.1,31.9,31.4,0000.8,0010.74,0020.13,0009.21
2021-08-26 11:41:00,,0829.7,5.00,0.00,30.1,29.4,00.0,39.1,31.9,31.4,0000.8,0010.77,0020.45,0009.23
2021-08-26 11:42:00,,0829.7,5.00,0.00,30.1,29.4,00.0,39.1,31.9,31.4,0000.6,0010.85,0021.21,0009.24
2021-08-26 11:43:00,,0829.7,5.00,0.00,30.1,29.4,00.0,39.1,31.9,31.5,0000.4,0010.83,0021.64,0009.23
2021-08-26 11:44:00,,0829.7,5.01,0.00,30.1,29.5,00.0,39.2,31.9,31.5,0000.3,0010.81,0021.06,0009.22
2021-08-26 11:45:00,,0829.6,5.01,0.00,30.1,29.4,00.0,39.2,31.9,31.6,0000.5,0010.89,0021.73,0009.23
2021-08-26 11:46:00,,0829.7,5.00,0.00,30.1,28.0,00.0,39.2,31.6,31.7,0000.9,0010.86,0022.05,0009.24
2021-08-26 11:47:00,,0829.5,5.00,0.00,29.9,26.5,00.0,39.1,31.2,32.4,0000.8,0010.85,0021.41,0009.24
2021-08-26 11:48:00,,0829.7,5.00,0.00,29.8,26.3,00.0,39.1,31.1,32.8,0000.4,0010.93,0021.83,0009.23
2021-08-26 11:49:00,,0829.8,4.99,0.00,29.7,26.7,00.0,39.0,31.2,32.5,0000.3,0011.02,0022.15,0009.24
2021-08-26 11:50:00,,0829.8,5.00,0.00,29.7,27.2,00.0,39.0,31.2,32.0,0000.4,0011.06,0022.97,0009.26
2021-08-26 11:51:00,,0829.8,5.01,0.00,29.7,27.5,00.0,39.0,31.3,31.9,0000.4,0011.07,0023.13,0009.26
2021-08-26 11:52:00,,0829.9,4.99,0.00,29.6,27.8,00.0,38.9,31.3,32.0,0000.5,0011.06,0022.75,0009.27
2021-08-26 11:53:00,,0829.8,4.99,0.00,29.6,28.0,00.0,38.9,31.2,32.3,0000.7,0011.05,0022.47,0009.25
2021-08-26 11:54:00,,0829.8,5.00,0.00,29.5,28.1,00.0,38.9,31.2,32.5,0000.9,0011.09,0022.20,0009.27
2021-08-26 11:55:00,,0829.8,5.00,0.00,29.5,28.2,00.0,38.9,31.2,32.7,0000.7,0011.08,0022.44,0009.28
2021-08-26 11:56:00,,0829.8,5.00,0.00,29.5,28.3,00.0,38.8,31.2,32.6,0000.8,0011.05,0022.72,0009.28
2021-08-26 11:57:00,,0829.8,5.02,0.00,29.5,28.4,00.0,38.8,31.2,31.8,0000.6,0011.09,0022.76,0009.28
2021-08-26 11:58:00,,0829.8,4.99,0.00,29.5,28.4,00.0,38.8,31.2,31.4,0000.7,0011.13,0022.66,0009.26
2021-08-26 11:59:00,,0829.8,5.02,0.00,29.5,28.4,00.0,38.8,31.2,31.2,0000.9,0011.06,0022.66,0009.24
